Regional Weather Roundup
Issued by NWS

Home | Current Version | Previous Version | Graphics & Text | Print | Product List | Glossary On
Versions: 1 2 3 4 5 6 7 8 9 10 11 12 13 14 15 16 17 18 19 20 21 22 23 24 25 26 27 28 29 30 31 32 33 34 35 36 37 38 39 40 41 42 43 44 45 46 47 48 49 50
000
ASUS43 KBIS 241620
RWRND

NORTH DAKOTA REGIONAL WEATHER ROUNDUP
NATIONAL WEATHER SERVICE BISMARCK ND
1100 AM CDT FRI OCT 24 2014

NOTE: "FAIR" INDICATES FEW OR NO CLOUDS BELOW 12,000 FEET WITH NO
SIGNIFICANT WEATHER AND/OR OBSTRUCTIONS TO VISIBILITY.


NDZ001>003-009>011-017-241700-
NORTHWEST NORTH DAKOTA

CITY           SKY/WX    TMP DP  RH WIND       PRES   REMARKS
WILLISTON      PTSUNNY   57  38  48 W16G24    29.91R
MINOT          PTSUNNY   62  38  40 W21G29    29.83R
MINOT AFB      PTSUNNY   61  39  44 W23       29.82R
$$

NDZ018>021-031>035-040>046-241700-
SOUTHWEST NORTH DAKOTA

CITY           SKY/WX    TMP DP  RH WIND       PRES   REMARKS
BISMARCK       MOSUNNY   59  38  45 W7        29.89R
DICKINSON      SUNNY     58  38  47 NW14      29.94R
GARRISON         N/A     56  41  57 W12       29.88R
HETTINGER ARPT SUNNY     62  37  39 NW14      29.98R
$$

NDZ004>008-012>016-024-026-027-054-241700-
NORTHEAST NORTH DAKOTA

CITY           SKY/WX    TMP DP  RH WIND       PRES   REMARKS
GRAND FORKS    PTSUNNY   62  40  44 W9        29.76S
GRND FRKS AFB  PTSUNNY   64  41  43 W10       29.76F
DEVILS LAKE    MOSUNNY   61  41  48 W16G22    29.79R
$$

NDZ022-023-025-028>030-036>039-047>053-241700-
SOUTHEAST NORTH DAKOTA

CITY           SKY/WX    TMP DP  RH WIND       PRES   REMARKS
FARGO          MOSUNNY   56  41  57 SW12      29.83R
JAMESTOWN      PTSUNNY   59  38  45 W8        29.83R
$$




USA.gov is the U.S. government's official web portal to all federal, state and local government web resources and services.